TimePDT,TemperatureF,Dew PointF,Humidity,Sea Level PressureIn,VisibilityMPH,Wind Direction,Wind SpeedMPH,Gust SpeedMPH,PrecipitationIn,Events,Conditions,WindDirDegrees,DateUTC
12:58 AM,41.9,40.3,94,30.29,10.0,SE,4.6,-,N/A,,Partly Cloudy,140,2011-10-31 07:58:00
1:58 AM,42.1,41.2,97,30.31,10.0,SSE,4.6,-,N/A,,Overcast,160,2011-10-31 08:58:00
2:58 AM,40.6,39.9,97,30.31,10.0,South,11.5,-,N/A,,Partly Cloudy,180,2011-10-31 09:58:00
3:58 AM,40.8,40.3,98,30.32,10.0,SSE,4.6,-,N/A,,Scattered Clouds,150,2011-10-31 10:58:00
4:58 AM,39.9,39.6,99,30.34,10.0,ESE,3.5,-,N/A,,Clear,120,2011-10-31 11:58:00
5:59 AM,36.5,36.3,99,30.35,10.0,SSE,5.8,-,N/A,,Clear,160,2011-10-31 12:59:00
6:58 AM,37.0,36.9,99,30.36,10.0,South,8.1,-,N/A,,Partly Cloudy,180,2011-10-31 13:58:00
7:58 AM,39.0,38.7,99,30.37,10.0,SSE,4.6,-,N/A,,Scattered Clouds,150,2011-10-31 14:58:00
8:58 AM,41.7,41.5,99,30.39,10.0,ESE,2.3,-,N/A,,Clear,110,2011-10-31 15:58:00
9:58 AM,47.1,43.9,88,30.40,10.0,South,8.1,-,N/A,,Clear,190,2011-10-31 16:58:00
10:58 AM,49.6,43.9,81,30.41,10.0,Variable,3.5,-,N/A,,Mostly Cloudy,0,2011-10-31 17:58:00
11:48 AM,51.8,42.8,71,30.37,10.0,SSW,6.9,-,N/A,,Scattered Clouds,210,2011-10-31 18:48:00
11:53 AM,51.8,42.8,71,30.37,10.0,SSW,4.6,-,N/A,,Mostly Cloudy,210,2011-10-31 18:53:00
11:58 AM,50.5,42.3,73,30.42,10.0,SSW,2.3,-,N/A,,Mostly Cloudy,210,2011-10-31 18:58:00
12:03 PM,50.0,42.8,76,30.37,10.0,Variable,3.5,-,N/A,,Partly Cloudy,0,2011-10-31 19:03:00
12:28 PM,50.0,42.8,76,30.37,10.0,West,5.8,-,N/A,,Mostly Cloudy,270,2011-10-31 19:28:00
12:38 PM,50.0,42.8,76,30.37,10.0,West,6.9,-,N/A,,Scattered Clouds,260,2011-10-31 19:38:00
12:58 PM,50.4,41.4,71,30.41,10.0,West,6.9,-,N/A,,Partly Cloudy,260,2011-10-31 19:58:00
1:58 PM,53.1,41.9,66,30.41,10.0,WSW,5.8,-,N/A,,Scattered Clouds,240,2011-10-31 20:58:00
2:58 PM,54.1,42.1,64,30.41,10.0,Variable,4.6,-,N/A,,Clear,0,2011-10-31 21:58:00
3:58 PM,52.3,41.5,67,30.42,10.0,WNW,4.6,-,N/A,,Partly Cloudy,290,2011-10-31 22:58:00
4:58 PM,52.9,41.9,66,30.44,10.0,NNE,9.2,-,N/A,,Overcast,30,2011-10-31 23:58:00
5:58 PM,49.3,41.0,73,30.45,10.0,ENE,4.6,-,N/A,,Mostly Cloudy,70,2011-11-01 00:58:00
6:58 PM,47.7,41.0,78,30.47,10.0,East,3.5,-,N/A,,Mostly Cloudy,90,2011-11-01 01:58:00
7:58 PM,43.7,40.6,89,30.48,10.0,Calm,Calm,-,N/A,,Mostly Cloudy,110,2011-11-01 02:58:00
8:58 PM,44.1,41.7,91,30.50,10.0,North,-9999.0,-,N/A,,Overcast,0,2011-11-01 03:58:00
9:58 PM,40.6,39.2,95,30.51,10.0,South,2.3,-,N/A,,Scattered Clouds,170,2011-11-01 04:58:00
10:38 PM,39.2,37.4,93,30.46,2.5,South,1.2,-,N/A,,Clear,170,2011-11-01 05:38:00
10:43 PM,39.2,39.2,100,30.46,2.0,North,-9999.0,-,N/A,,Clear,0,2011-11-01 05:43:00
10:48 PM,39.2,37.4,93,30.46,2.0,North,-9999.0,-,N/A,,Clear,0,2011-11-01 05:48:00
10:53 PM,37.4,37.4,100,30.47,1.8,North,-9999.0,-,N/A,,Clear,0,2011-11-01 05:53:00
10:58 PM,37.9,37.4,98,30.52,0.8,North,-9999.0,-,N/A,,Clear,0,2011-11-01 05:58:00
11:03 PM,37.4,37.4,100,30.47,0.5,SSE,2.3,-,N/A,Fog,Fog,160,2011-11-01 06:03:00
11:08 PM,37.4,37.4,100,30.47,1.2,SSE,2.3,-,N/A,,Clear,160,2011-11-01 06:08:00
11:13 PM,37.4,37.4,100,30.47,2.0,SSE,3.5,-,N/A,,Clear,160,2011-11-01 06:13:00
11:18 PM,37.4,37.4,100,30.47,1.5,South,3.5,-,N/A,,Clear,170,2011-11-01 06:18:00
11:23 PM,37.4,37.4,100,30.47,2.5,South,3.5,-,N/A,,Clear,170,2011-11-01 06:23:00
11:28 PM,37.4,37.4,100,30.47,8.0,South,3.5,-,N/A,,Clear,170,2011-11-01 06:28:00
11:38 PM,37.4,35.6,93,30.47,2.0,Calm,Calm,-,N/A,,Clear,20,2011-11-01 06:38:00
11:43 PM,37.4,37.4,100,30.47,0.8,South,2.3,-,N/A,,Clear,170,2011-11-01 06:43:00
11:48 PM,37.4,37.4,100,30.47,0.5,SSE,3.5,-,N/A,Fog,Fog,160,2011-11-01 06:48:00
11:53 PM,37.4,35.6,93,30.47,0.5,SSE,3.5,-,N/A,Fog,Fog,150,2011-11-01 06:53:00
11:58 PM,36.3,36.1,99,30.52,1.8,SSE,3.5,-,N/A,,Clear,150,2011-11-01 06:58:00